Hourly Weather Mundo Novo

Today, 17 September, Friday

Time Temperature Precipitation Wind Pressure Humidity
00:00 +19°C° 0 mm 1 mps 717 mmHg 96%
01:00 +19°C° 0 mm 2 mps 717 mmHg 93%
02:00 +19°C° 0 mm 2 mps 717 mmHg 90%
03:00 +20°C° 0 mm 3 mps 717 mmHg 87%
04:00 +20°C° 0.1 mm 3 mps 717 mmHg 87%
05:00 +20°C° 0.1 mm 3 mps 717 mmHg 86%
06:00 +19°C° 0.1 mm 3 mps 718 mmHg 86%
07:00 +21°C° 0.1 mm 3 mps 718 mmHg 77%
08:00 +22°C° 0.1 mm 3 mps 718 mmHg 69%
09:00 +25°C° 0.1 mm 4 mps 718 mmHg 61%
10:00 +27°C° 0 mm 4 mps 718 mmHg 52%
11:00 +29°C° 0 mm 4 mps 717 mmHg 44%
12:00 +32°C° 0 mm 5 mps 717 mmHg 35%
13:00 +32°C° 0 mm 4 mps 716 mmHg 32%
14:00 +33°C° 0 mm 4 mps 716 mmHg 30%
15:00 +33°C° 0 mm 4 mps 715 mmHg 27%
16:00 +30°C° 0 mm 4 mps 715 mmHg 31%
17:00 +28°C° 0 mm 4 mps 715 mmHg 35%
18:00 +27°C° 0 mm 5 mps 715 mmHg 40%
19:00 +25°C° 0 mm 4 mps 715 mmHg 48%
20:00 +22°C° 0 mm 4 mps 716 mmHg 57%
21:00 +20°C° 0 mm 4 mps 716 mmHg 65%
22:00 +19°C° 0 mm 3 mps 716 mmHg 71%
23:00 +18°C° 0 mm 2 mps 716 mmHg 78%

Tomorrow, 18 September, Saturday

Time Temperature Precipitation Wind Pressure Humidity
00:00 +18°C° 0 mm 1 mps 716 mmHg 84%
01:00 +16°C° 0 mm 1 mps 716 mmHg 88%
02:00 +16°C° 0 mm 1 mps 715 mmHg 91%
03:00 +15°C° 0 mm 1 mps 715 mmHg 94%
04:00 +15°C° 0 mm 1 mps 715 mmHg 94%
05:00 +15°C° 0 mm 1 mps 716 mmHg 94%
06:00 +15°C° 0 mm 1 mps 716 mmHg 94%
07:00 +19°C° 0 mm 1 mps 716 mmHg 79%
08:00 +21°C° 0 mm 2 mps 717 mmHg 63%
09:00 +25°C° 0 mm 3 mps 717 mmHg 47%
10:00 +27°C° 0 mm 3 mps 717 mmHg 42%
11:00 +29°C° 0 mm 4 mps 716 mmHg 36%
12:00 +30°C° 0 mm 4 mps 716 mmHg 30%
13:00 +32°C° 0 mm 4 mps 715 mmHg 30%
14:00 +32°C° 0 mm 4 mps 714 mmHg 29%
15:00 +32°C° 0 mm 4 mps 714 mmHg 28%
16:00 +29°C° 0 mm 3 mps 714 mmHg 35%
17:00 +27°C° 0 mm 3 mps 714 mmHg 41%
18:00 +25°C° 0 mm 3 mps 714 mmHg 47%
19:00 +24°C° 0 mm 3 mps 714 mmHg 54%
20:00 +22°C° 0 mm 3 mps 714 mmHg 61%
21:00 +21°C° 0 mm 3 mps 715 mmHg 68%
22:00 +20°C° 0 mm 3 mps 715 mmHg 76%
23:00 +18°C° 0 mm 2 mps 715 mmHg 84%

Day after tomorrow, 19 September, Sunday

Time Temperature Precipitation Wind Pressure Humidity
00:00 +18°C° 0 mm 1 mps 715 mmHg 92%
01:00 +18°C° 0 mm 1 mps 714 mmHg 94%
02:00 +16°C° 0 mm 0 mps 714 mmHg 95%
03:00 +16°C° 0 mm 0 mps 714 mmHg 97%
04:00 +16°C° 0 mm 0 mps 714 mmHg 93%
05:00 +19°C° 0 mm 1 mps 715 mmHg 89%
06:00 +19°C° 0 mm 1 mps 715 mmHg 85%
07:00 +21°C° 0 mm 1 mps 715 mmHg 79%
08:00 +22°C° 0 mm 1 mps 716 mmHg 74%
09:00 +23°C° 0 mm 1 mps 716 mmHg 68%
10:00 +26°C° 0 mm 2 mps 716 mmHg 56%
11:00 +29°C° 0 mm 2 mps 715 mmHg 44%
12:00 +32°C° 0 mm 2 mps 715 mmHg 31%
13:00 +32°C° 0 mm 2 mps 714 mmHg 28%
14:00 +34°C° 0 mm 2 mps 713 mmHg 25%
15:00 +35°C° 0 mm 3 mps 713 mmHg 23%
16:00 +31°C° 0 mm 2 mps 713 mmHg 26%
17:00 +29°C° 0 mm 2 mps 713 mmHg 30%
18:00 +26°C° 0 mm 1 mps 713 mmHg 34%
19:00 +25°C° 0 mm 2 mps 713 mmHg 42%
20:00 +24°C° 0 mm 2 mps 713 mmHg 50%
21:00 +21°C° 0 mm 2 mps 714 mmHg 58%
22:00 +20°C° 0 mm 2 mps 714 mmHg 70%
23:00 +20°C° 0 mm 1 mps 714 mmHg 82%

20 September, Monday

Time Temperature Precipitation Wind Pressure Humidity
00:00 +19°C° 0 mm 1 mps 714 mmHg 94%
01:00 +18°C° 0 mm 1 mps 714 mmHg 95%
02:00 +16°C° 0 mm 0 mps 714 mmHg 96%
03:00 +16°C° 0 mm 0 mps 713 mmHg 97%
04:00 +16°C° 0 mm 0 mps 714 mmHg 96%
05:00 +16°C° 0 mm 0 mps 714 mmHg 96%
06:00 +16°C° 0 mm 0 mps 714 mmHg 95%
07:00 +21°C° 0 mm 1 mps 715 mmHg 81%
08:00 +23°C° 0 mm 2 mps 716 mmHg 68%
09:00 +25°C° 0 mm 3 mps 716 mmHg 54%
10:00 +28°C° 0 mm 3 mps 716 mmHg 45%
11:00 +30°C° 0 mm 3 mps 715 mmHg 36%
12:00 +33°C° 0 mm 3 mps 715 mmHg 27%
13:00 +34°C° 0 mm 3 mps 714 mmHg 25%
14:00 +34°C° 0 mm 3 mps 713 mmHg 23%
15:00 +35°C° 0 mm 3 mps 713 mmHg 21%
16:00 +33°C° 0 mm 3 mps 713 mmHg 25%
17:00 +29°C° 0 mm 2 mps 713 mmHg 28%
18:00 +27°C° 0 mm 2 mps 713 mmHg 32%
19:00 +25°C° 0 mm 2 mps 713 mmHg 40%
20:00 +24°C° 0 mm 2 mps 714 mmHg 48%
21:00 +22°C° 0 mm 3 mps 714 mmHg 57%
22:00 +20°C° 0 mm 2 mps 714 mmHg 66%
23:00 +19°C° 0 mm 2 mps 714 mmHg 75%

21 September, Tuesday

Time Temperature Precipitation Wind Pressure Humidity
00:00 +19°C° 0 mm 1 mps 714 mmHg 85%
01:00 +18°C° 0 mm 1 mps 714 mmHg 89%
02:00 +18°C° 0 mm 1 mps 714 mmHg 92%
03:00 +16°C° 0 mm 1 mps 714 mmHg 96%
04:00 +18°C° 0 mm 1 mps 714 mmHg 94%
05:00 +19°C° 0 mm 1 mps 715 mmHg 91%
06:00 +20°C° 0 mm 1 mps 715 mmHg 88%
07:00 +21°C° 0 mm 1 mps 715 mmHg 81%
08:00 +21°C° 0 mm 2 mps 716 mmHg 74%
09:00 +23°C° 0 mm 2 mps 716 mmHg 68%
10:00 +26°C° 0 mm 2 mps 715 mmHg 56%
11:00 +29°C° 0 mm 3 mps 715 mmHg 44%
12:00 +33°C° 0 mm 3 mps 714 mmHg 32%
13:00 +34°C° 0 mm 3 mps 713 mmHg 29%
14:00 +35°C° 0 mm 3 mps 713 mmHg 27%
15:00 +35°C° 0 mm 2 mps 712 mmHg 24%
16:00 +32°C° 0 mm 2 mps 712 mmHg 29%
17:00 +30°C° 0 mm 2 mps 712 mmHg 33%
18:00 +27°C° 0 mm 1 mps 712 mmHg 37%
19:00 +26°C° 0 mm 1 mps 712 mmHg 41%
20:00 +25°C° 0 mm 1 mps 712 mmHg 44%
21:00 +24°C° 0 mm 1 mps 713 mmHg 47%
22:00 +23°C° 0 mm 1 mps 712 mmHg 59%
23:00 +22°C° 0 mm 1 mps 712 mmHg 71%

22 September, Wednesday

Time Temperature Precipitation Wind Pressure Humidity
00:00 +20°C° 0 mm 1 mps 712 mmHg 83%
01:00 +18°C° 0 mm 0 mps 712 mmHg 87%
02:00 +17°C° 0 mm 0 mps 712 mmHg 91%
03:00 +17°C° 0 mm 0 mps 712 mmHg 95%
04:00 +17°C° 0 mm 0 mps 712 mmHg 95%
05:00 +17°C° 0 mm 0 mps 712 mmHg 95%
06:00 +17°C° 0 mm 0 mps 713 mmHg 95%
07:00 +22°C° 0 mm 1 mps 713 mmHg 78%
08:00 +26°C° 0 mm 1 mps 713 mmHg 61%
09:00 +29°C° 0 mm 2 mps 714 mmHg 44%
10:00 +32°C° 0 mm 2 mps 713 mmHg 36%
11:00 +35°C° 0 mm 2 mps 713 mmHg 28%
12:00 +38°C° 0 mm 2 mps 712 mmHg 20%
13:00 +38°C° 0 mm 2 mps 711 mmHg 19%
14:00 +39°C° 0 mm 2 mps 711 mmHg 17%
15:00 +39°C° 0 mm 2 mps 710 mmHg 15%
16:00 +36°C° 0 mm 2 mps 710 mmHg 19%
17:00 +32°C° 0 mm 2 mps 710 mmHg 22%
18:00 +30°C° 0 mm 1 mps 710 mmHg 26%
19:00 +28°C° 0 mm 1 mps 711 mmHg 28%
20:00 +27°C° 0 mm 1 mps 711 mmHg 30%
21:00 +26°C° 0 mm 1 mps 711 mmHg 33%
22:00 +26°C° 0 mm 1 mps 711 mmHg 35%
23:00 +25°C° 0 mm 1 mps 711 mmHg 37%
Show more

We Need Your Consent

Meteoprog and our Service Providers may store and access personal data such as cookies, device identifiers or other similar technologies on your device and process such data to personalise content and ads, as well as provide social media features and to analyse the traffic.

  • Store and/or access information on your device

    Cookies, device identifiers or other information can be stored or accessed on your device for the purposes indicated above.

  • Personalised ads and content, ad and content measurement, audience insights, and products development

    Ads and content can be personalised based on a profile. More data can be added to better personalise ads and content. Ad and content performance can be measured. Insights about the audience who saw the ads and content can be derived. Such data can be used to develop or improve user’s experience, systems and software.

By clicking ‘I Agree’ you will allow the use of indicated cookies, device identifiers, web beacons or other similar technologies. Your settings can be changed in the browser on your device.

For certain purposes, legitimate interests may be relied on, rather than consent. You can read more about this in our Privacy and Cookie Policy.